Flag for Italy Weather past 2 weeks in Ancona, Italy

Now
77 °F

Passing clouds.


Feels Like: 79 °F
Forecast: 65 / 80 °F
Wind: 10 mph from North

Location: Falconara

Current Time: Jul 24, 2014 at 1:39:39 PM

Latest Report: Jul 24, 2014 at 12:50 PM


Visibility: N/A

Pressure: 29.86 "Hg

Humidity: 69%

Dew point: 66 °F

Location of AnconaLocation

Historic Weather in Ancona — Graph

°F

Ancona temperature yesterday

Maximum temperature yesterday: 79 °F (at 12:50 PM)
Minimum temperature yesterday: 66 °F (at 3:50 AM)
Average temperature yesterday: 73 °F

Past Weeks' High & Low Weather Summary

 TemperatureHumidityPressure
High120 °F (Jul 24, 5:50 AM)100% (Jul 13, 6:50 AM)30.07 "Hg (Jul 13, 6:50 AM)
Low61 °F (Jul 11, 2:50 AM)16% (Jul 24, 5:50 AM)29.65 "Hg (Jul 10, 3:50 AM)
Average73 °F72%29.89 "Hg
* Reported Jul 9 2:50 PM — Jul 24 11:50 AM, Ancona, Weather by CustomWeather, © 2014

Note: Actual official high and low records may vary slightly from our data, if they occured in-between our weather recording intervals... More about our weather records

Advertising

Ancona weather history for previous 24 hours

 ConditionsComfort  
Time TempWeatherWind HumidityBarometerVisibility
11:50 AM
Jul 24
77 °FPassing clouds.10 mph69%29.86 "HgN/A
10:50 AM77 °FPassing clouds.9 mph69%29.86 "HgN/A
9:50 AM77 °FSunny.10 mph65%29.86 "Hg10 mi
8:50 AM75 °FSunny.3 mph74%29.86 "Hg10 mi
7:50 AM72 °FPassing clouds.3 mph73%29.86 "HgN/A
6:50 AM66 °FSunny.3 mph88%29.86 "Hg10 mi
5:50 AM120 °FClear.3 mph16%29.83 "Hg10 mi
4:50 AM66 °FClear.5 mph94%29.83 "Hg10 mi
3:50 AM66 °FClear.5 mph56%29.83 "Hg10 mi
2:50 AM68 °FClear.5 mph88%29.86 "Hg10 mi
1:50 AM68 °FClear.5 mph88%29.86 "Hg10 mi
12:50 AM68 °FClear.3 mph94%29.86 "Hg10 mi
11:50 PM
Jul 23
70 °FClear.5 mph88%29.86 "Hg10 mi
10:50 PM70 °FClear.3 mph88%29.86 "Hg10 mi
9:50 PM72 °FClear.2 mph83%29.86 "Hg10 mi
8:50 PM73 °FSunny.2 mph78%29.83 "Hg10 mi
7:50 PM77 °FSunny.6 mph69%29.83 "Hg10 mi
6:50 PM79 °FPassing clouds.7 mph65%29.83 "HgN/A
5:50 PM79 °FPassing clouds.8 mph65%29.80 "HgN/A
4:50 PM79 °FSunny.8 mph65%29.83 "Hg10 mi
3:50 PM79 °FPassing clouds.9 mph65%29.83 "HgN/A
2:50 PM79 °FPassing clouds.9 mph65%29.83 "HgN/A
1:50 PM79 °FPassing clouds.7 mph65%29.83 "HgN/A
Weather by CustomWeather, © 2014

See weather overviewHow to use our weather pages